FW1583 Weather Reports


time (UTC)temp
F
wind
direction
speed
knots
gust
knots
rain 1hr
in
rain 24hr
in
rain mn
in
humidity
%
barometer
mb
20260507140539 53 292 0.0 0.0 0.00 0.12 0.04 72 1015.5
20260507135637 53 292 0.0 0.0 0.00 0.14 0.04 71 1015.6
20260507134638 53 292 0.0 0.0 0.00 0.16 0.04 72 1015.7
20260507133736 53 292 0.0 0.0 0.00 0.18 0.04 74 1015.7
20260507132738 53 292 0.0 0.0 0.00 0.20 0.04 77 1015.8
20260507130738 53 22 0.0 0.0 0.00 0.24 0.04 79 1015.6
20260507125739 53 22 0.0 0.0 0.00 0.24 0.04 79 1015.5
20260507124739 52 22 0.0 0.0 0.00 0.25 0.04 79 1015.5
20260507122742 53 67 0.0 0.0 0.00 0.25 0.04 86 1015.6
20260507121740 54 292 0.0 0.0 0.00 0.26 0.04 91 1015.4
20260507121637 54 292 0.0 0.0 0.00 0.26 0.04 91 1015.4
20260507120638 54 270 0.0 0.0 0.00 0.27 0.04 92 1015.3
20260507115638 54 22 0.0 0.0 0.00 0.27 0.04 94 1015.3
20260507114638 54 112 0.0 0.0 0.00 0.27 0.04 94 1015.1
20260507113639 53 112 0.0 0.0 0.00 0.27 0.04 94 1015.0
20260507112637 53 22 0.0 0.9 0.00 0.27 0.04 94 1015.0
20260507111639 53 360 0.0 0.0 0.00 0.27 0.04 94 1015.1
20260507110639 53 360 0.0 0.0 0.00 0.27 0.04 94 1014.8
20260507110537 53 360 0.0 0.0 0.00 0.27 0.04 94 1014.7
20260507105540 53 360 0.0 0.0 0.00 0.27 0.04 94 1015.0
20260507104538 53 360 0.0 0.0 0.00 0.27 0.04 94 1014.7
20260507094638 53 360 0.0 0.0 0.00 0.27 0.04 94 1014.4
20260507093737 53 360 0.0 0.0 0.00 0.27 0.04 94 1014.4
20260507092736 53 360 0.0 0.0 0.00 0.27 0.04 94 1014.3
20260507091738 53 360 0.0 0.0 0.00 0.27 0.04 94 1014.1
20260507085839 54 360 0.0 0.0 0.00 0.27 0.04 94 1014.4
20260507084838 54 360 0.0 0.0 0.01 0.27 0.04 94 1014.2
20260507083937 54 360 0.0 0.0 0.01 0.27 0.04 94 1013.9
20260507082936 54 360 0.0 0.0 0.01 0.27 0.04 94 1014.2
20260507081936 54 360 0.0 0.0 0.01 0.27 0.04 94 1014.0
20260507080936 54 360 0.0 0.0 0.01 0.27 0.04 94 1013.8
20260507075936 54 360 0.0 0.0 0.01 0.27 0.04 94 1013.6
20260507074937 54 360 0.0 0.0 0.00 0.26 0.03 94 1013.5
20260507072937 55 292 0.0 0.0 0.00 0.26 0.03 93 1013.2
20260507071036 55 292 0.0 0.0 0.00 0.26 0.03 94 1013.2
20260507070037 55 292 0.0 0.0 0.00 0.26 0.03 94 1013.3
20260507065055 55 292 0.0 0.0 0.00 0.26 0.03 94 1013.1
20260507063038 55 270 0.0 0.0 0.01 0.26 0.03 93 1013.5
20260507062137 55 348 0.0 0.0 0.01 0.26 0.03 93 1013.4
20260507061139 55 22 0.0 0.0 0.01 0.26 0.03 92 1013.3
20260507060139 55 22 0.0 0.0 0.01 0.26 0.03 92 1013.1
20260507055139 56 21 0.0 0.9 0.01 0.26 0.03 91 1013.3
20260507054139 56 339 0.0 0.9 0.01 0.25 0.02 90 1013.4
20260507053236 56 315 0.0 0.0 0.01 0.25 0.02 90 1013.5
20260507052239 56 337 0.0 0.0 0.02 0.25 0.02 89 1013.4
20260507052137 56 337 0.0 0.0 0.02 0.25 0.02 89 1013.3
20260507051138 56 315 0.0 0.0 0.02 0.25 0.02 89 1012.9
20260507050236 57 315 0.0 0.0 0.02 0.25 0.02 88 1013.6
20260507045239 58 315 0.0 0.0 0.02 0.25 0.02 86 1013.5
20260507044237 59 292 0.0 0.0 0.02 0.25 0.01 85 1013.8
20260507043236 60 292 0.0 0.0 0.01 0.24 0.00 83 1013.4
20260507042238 61 315 0.0 0.0 0.00 0.23 0.00 80 1013.7
20260507041335 61 315 0.0 0.0 0.00 0.23 0.00 79 1013.4
20260507040335 61 315 0.0 0.9 0.00 0.23 0.00 80 1013.4
20260507035340 62 292 0.0 0.9 0.00 0.23 0.23 79 1013.0
20260507034340 62 315 0.0 0.0 0.00 0.23 0.23 77 1013.0
20260507033342 62 1 0.0 3.5 0.00 0.23 0.23 77 1013.2
20260507032342 63 315 0.0 0.9 0.00 0.23 0.23 77 1013.0
20260507031441 63 60 0.0 3.5 0.00 0.23 0.23 77 1013.0
20260507030442 63 270 0.0 0.0 0.00 0.23 0.23 78 1012.4
20260507024442 64 292 0.0 1.7 0.00 0.23 0.23 81 1012.7
20260507023442 64 295 0.0 0.9 0.00 0.23 0.23 83 1012.6
20260507022459 65 292 0.0 0.9 0.00 0.23 0.23 85 1012.1
20260507022341 65 292 0.0 1.7 0.00 0.23 0.23 85 1012.1
20260507021344 65 292 0.0 0.9 0.00 0.23 0.23 86 1012.1
20260507020342 65 292 0.0 0.0 0.00 0.23 0.23 87 1012.0
20260507015343 66 292 0.0 0.0 0.00 0.23 0.23 87 1011.9
20260507014341 66 292 0.0 0.0 0.00 0.23 0.23 86 1011.8
20260507013343 66 292 0.0 0.0 0.00 0.23 0.23 86 1012.0
20260507012343 66 292 0.0 0.0 0.00 0.23 0.23 85 1012.1
20260507010341 66 292 0.0 0.0 0.00 0.23 0.23 85 1012.1
20260507005342 66 292 0.0 0.0 0.00 0.23 0.23 84 1012.1
20260507001442 67 292 0.0 0.0 0.00 0.23 0.23 82 1011.7
20260507000541 67 292 0.0 0.0 0.00 0.23 0.23 82 1011.5
20260506234542 68 292 0.0 0.0 0.00 0.23 0.23 81 1011.3
20260506233542 68 292 0.0 0.9 0.00 0.23 0.23 81 1011.1
20260506232542 68 292 0.0 0.0 0.00 0.23 0.23 81 1011.1
20260506231639 68 202 0.0 0.0 0.00 0.23 0.23 80 1011.1
20260506230642 68 292 0.0 0.0 0.00 0.23 0.23 80 1011.0
20260506225740 68 22 0.0 0.0 0.00 0.23 0.23 80 1011.0
20260506224759 68 180 0.0 0.0 0.00 0.23 0.23 79 1010.7
20260506221841 69 292 0.0 0.0 0.00 0.23 0.23 79 1010.8
20260506220939 69 135 0.0 0.0 0.00 0.23 0.23 78 1010.6
20260506215939 70 179 0.0 0.0 0.00 0.23 0.23 78 1010.8
20260506214940 70 135 0.0 4.3 0.00 0.23 0.23 77 1010.8
20260506213941 70 266 0.0 2.6 0.00 0.23 0.23 77 1010.7
20260506212944 70 21 0.0 1.7 0.00 0.23 0.23 77 1010.8
20260506211941 70 86 0.0 0.9 0.00 0.23 0.23 76 1010.7
20260506210940 70 302 1.7 4.3 0.00 0.23 0.23 76 1010.6
20260506205944 70 198 1.7 4.3 0.00 0.23 0.23 78 1010.3
20260506204942 69 256 0.0 0.9 0.00 0.23 0.23 78 1010.4
20260506203040 69 248 2.6 6.1 0.00 0.23 0.23 78 1010.3
20260506202043 69 187 0.0 0.9 0.00 0.23 0.23 78 1010.3
20260506200141 68 247 0.0 0.9 0.00 0.23 0.23 78 1010.5
20260506195141 69 267 0.9 3.5 0.00 0.23 0.23 79 1010.5
20260506194143 69 245 0.0 2.6 0.00 0.23 0.23 79 1010.4
20260506193142 68 38 0.0 1.7 0.00 0.23 0.23 80 1010.5
20260506192159 68 124 0.9 3.5 0.00 0.23 0.23 81 1010.5
20260506185340 66 258 0.0 2.6 0.00 0.23 0.23 83 1010.9
20260506184341 66 112 0.0 0.9 0.00 0.23 0.23 83 1011.0
20260506183344 66 292 0.0 2.6 0.01 0.23 0.23 85 1011.2
20260506182341 65 284 0.9 2.6 0.01 0.23 0.23 84 1011.2
20260506181343 66 129 0.9 3.5 0.01 0.23 0.23 85 1011.3
20260506180342 66 314 0.0 1.7 0.01 0.23 0.23 86 1011.5
20260506180241 66 291 0.9 2.6 0.01 0.23 0.23 87 1011.4
20260506175243 65 230 0.0 1.7 0.01 0.23 0.23 88 1011.4
20260506174341 64 153 0.0 3.5 0.01 0.23 0.23 89 1011.6
20260506173341 64 253 1.7 4.3 0.00 0.22 0.22 91 1011.8
20260506172342 63 314 0.0 1.7 0.00 0.22 0.22 91 1011.7
20260506171342 63 288 0.9 1.7 0.00 0.22 0.22 91 1011.7
20260506170341 63 127 0.9 2.6 0.00 0.22 0.22 93 1012.0
20260506165342 63 185 0.0 1.7 0.00 0.22 0.22 94 1012.0
20260506164439 63 207 2.6 6.1 0.00 0.22 0.22 95 1011.8
20260506163441 62 169 0.0 2.6 0.00 0.22 0.22 95 1011.9
20260506163342 62 350 0.0 3.5 0.00 0.22 0.22 95 1012.0
20260506162439 62 313 0.9 2.6 0.00 0.22 0.22 96 1012.0
20260506161442 61 55 0.0 1.7 0.00 0.22 0.22 96 1012.0
20260506160443 61 142 0.9 2.6 0.02 0.22 0.22 96 1012.0
20260506155455 61 224 0.0 2.6 0.03 0.22 0.22 95 1012.1
20260506155342 61 224 0.9 4.3 0.03 0.22 0.22 95 1012.2
20260506154344 60 86 0.0 1.7 0.04 0.22 0.22 95 1012.5
20260506153439 60 124 0.0 3.5 0.05 0.22 0.22 95 1012.6
20260506151441 59 177 1.7 7.0 0.06 0.22 0.21 94 1012.4
20260506150441 60 50 0.0 0.9 0.06 0.20 0.20 94 1012.8
20260506145540 59 162 0.0 0.0 0.06 0.19 0.19 94 1012.9
20260506145441 59 198 0.0 0.0 0.06 0.19 0.19 94 1013.1
20260506144441 60 202 0.0 0.0 0.08 0.19 0.18 93 1013.1
20260506143540 59 87 0.0 0.0 0.09 0.18 0.17 93 1013.1
20260506142540 59 84 0.0 0.0 0.10 0.17 0.17 93 1013.2
20260506141540 59 180 0.0 0.0 0.12 0.16 0.16 92 1013.1